When you browse on this site, cookies collect data to enhance your experience and personalize the content and advertising you see.
Visit our Privacy Policy to learn more. By continuing to use the site, you agree to this use of cookies and data.
  • In Austria
  • List of Countries
  • For 7 days
  • Water Temperature
  • Satellite Maps
  • Weather Map
  • News
  • Weather Widgets
  • user-avatar
    Login

    Hourly Weather Podvoste

    Today, 21 July, Sunday

    Time Temperature Precipitation Wind Pressure Humidity
    00:00 +16°C° 0 mm 0 mps 751 mmHg 87%
    01:00 +16°C° 0 mm 0 mps 751 mmHg 88%
    02:00 +15°C° 0 mm 0 mps 751 mmHg 89%
    03:00 +15°C° 0 mm 0 mps 751 mmHg 89%
    04:00 +15°C° 0 mm 0 mps 751 mmHg 89%
    05:00 +15°C° 0 mm 0 mps 751 mmHg 90%
    06:00 +19°C° 0 mm 1 mps 751 mmHg 84%
    07:00 +21°C° 0 mm 1 mps 751 mmHg 78%
    08:00 +23°C° 0 mm 1 mps 751 mmHg 72%
    09:00 +24°C° 0 mm 1 mps 751 mmHg 66%
    10:00 +26°C° 0 mm 1 mps 751 mmHg 60%
    11:00 +28°C° 0 mm 1 mps 751 mmHg 54%
    12:00 +28°C° 0 mm 1 mps 751 mmHg 51%
    13:00 +29°C° 0 mm 1 mps 751 mmHg 48%
    14:00 +29°C° 0 mm 1 mps 750 mmHg 45%
    15:00 +29°C° 0 mm 1 mps 750 mmHg 46%
    16:00 +29°C° 0 mm 1 mps 750 mmHg 48%
    17:00 +29°C° 0 mm 1 mps 750 mmHg 50%
    18:00 +27°C° 0 mm 1 mps 750 mmHg 58%
    19:00 +25°C° 0 mm 1 mps 749 mmHg 65%
    20:00 +23°C° 0 mm 1 mps 749 mmHg 73%
    21:00 +22°C° 0.2 mm 1 mps 749 mmHg 76%
    22:00 +21°C° 0.2 mm 1 mps 749 mmHg 80%
    23:00 +20°C° 0.2 mm 1 mps 749 mmHg 83%

    Tomorrow, 22 July, Monday

    Time Temperature Precipitation Wind Pressure Humidity
    00:00 +20°C° 0.3 mm 1 mps 749 mmHg 86%
    01:00 +20°C° 0.3 mm 1 mps 749 mmHg 88%
    02:00 +20°C° 0.3 mm 1 mps 749 mmHg 90%
    03:00 +20°C° 1.1 mm 1 mps 749 mmHg 92%
    04:00 +20°C° 1.1 mm 1 mps 748 mmHg 94%
    05:00 +19°C° 1.1 mm 1 mps 748 mmHg 96%
    06:00 +20°C° 0.2 mm 1 mps 748 mmHg 95%
    07:00 +19°C° 0.2 mm 2 mps 749 mmHg 95%
    08:00 +20°C° 0.2 mm 2 mps 749 mmHg 94%
    09:00 +20°C° 0.1 mm 3 mps 749 mmHg 92%
    10:00 +20°C° 0.1 mm 4 mps 749 mmHg 91%
    11:00 +20°C° 0.1 mm 4 mps 749 mmHg 89%
    12:00 +21°C° 0 mm 5 mps 749 mmHg 83%
    13:00 +21°C° 0 mm 5 mps 749 mmHg 78%
    14:00 +22°C° 0 mm 5 mps 749 mmHg 72%
    15:00 +22°C° 0 mm 5 mps 749 mmHg 71%
    16:00 +22°C° 0 mm 5 mps 749 mmHg 70%
    17:00 +23°C° 0 mm 5 mps 749 mmHg 69%
    18:00 +21°C° 0 mm 4 mps 749 mmHg 75%
    19:00 +20°C° 0 mm 4 mps 749 mmHg 80%
    20:00 +19°C° 0 mm 3 mps 749 mmHg 86%
    21:00 +18°C° 0 mm 3 mps 749 mmHg 88%
    22:00 +17°C° 0 mm 4 mps 749 mmHg 90%
    23:00 +17°C° 0 mm 4 mps 749 mmHg 92%

    Day after tomorrow, 23 July, Tuesday

    Time Temperature Precipitation Wind Pressure Humidity
    00:00 +16°C° 0 mm 3 mps 749 mmHg 93%
    01:00 +16°C° 0 mm 3 mps 749 mmHg 94%
    02:00 +14°C° 0 mm 3 mps 749 mmHg 95%
    03:00 +14°C° 0 mm 4 mps 749 mmHg 94%
    04:00 +14°C° 0 mm 4 mps 749 mmHg 92%
    05:00 +14°C° 0 mm 4 mps 749 mmHg 90%
    06:00 +15°C° 0 mm 4 mps 749 mmHg 89%
    07:00 +15°C° 0 mm 4 mps 749 mmHg 87%
    08:00 +17°C° 0 mm 4 mps 748 mmHg 85%
    09:00 +18°C° 0.1 mm 4 mps 749 mmHg 82%
    10:00 +19°C° 0.1 mm 4 mps 749 mmHg 79%
    11:00 +20°C° 0.1 mm 4 mps 749 mmHg 76%
    12:00 +20°C° 0.2 mm 4 mps 749 mmHg 78%
    13:00 +19°C° 0.2 mm 4 mps 748 mmHg 80%
    14:00 +19°C° 0.2 mm 4 mps 748 mmHg 82%
    15:00 +19°C° 0.2 mm 4 mps 748 mmHg 82%
    16:00 +19°C° 0.2 mm 4 mps 748 mmHg 82%
    17:00 +19°C° 0.2 mm 4 mps 747 mmHg 83%
    18:00 +19°C° 0.1 mm 3 mps 747 mmHg 86%
    19:00 +18°C° 0.1 mm 3 mps 747 mmHg 90%
    20:00 +17°C° 0.1 mm 2 mps 747 mmHg 94%
    21:00 +17°C° 0 mm 2 mps 747 mmHg 95%
    22:00 +17°C° 0 mm 2 mps 747 mmHg 96%
    23:00 +16°C° 0 mm 2 mps 748 mmHg 97%

    24 July, Wednesday

    Time Temperature Precipitation Wind Pressure Humidity
    00:00 +16°C° 0 mm 3 mps 748 mmHg 97%
    01:00 +16°C° 0 mm 3 mps 748 mmHg 97%
    02:00 +16°C° 0 mm 3 mps 748 mmHg 97%
    03:00 +14°C° 0 mm 3 mps 748 mmHg 97%
    04:00 +14°C° 0 mm 3 mps 748 mmHg 97%
    05:00 +14°C° 0 mm 3 mps 748 mmHg 97%
    06:00 +16°C° 0 mm 3 mps 749 mmHg 92%
    07:00 +18°C° 0 mm 3 mps 749 mmHg 87%
    08:00 +19°C° 0 mm 4 mps 749 mmHg 81%
    09:00 +21°C° 0 mm 4 mps 749 mmHg 75%
    10:00 +22°C° 0 mm 4 mps 750 mmHg 68%
    11:00 +25°C° 0 mm 4 mps 750 mmHg 62%
    12:00 +25°C° 0 mm 4 mps 750 mmHg 60%
    13:00 +26°C° 0 mm 4 mps 750 mmHg 58%
    14:00 +27°C° 0 mm 4 mps 750 mmHg 57%
    15:00 +27°C° 0 mm 4 mps 750 mmHg 58%
    16:00 +26°C° 0 mm 4 mps 750 mmHg 60%
    17:00 +26°C° 0 mm 4 mps 750 mmHg 62%
    18:00 +24°C° 0 mm 3 mps 750 mmHg 68%
    19:00 +22°C° 0 mm 3 mps 750 mmHg 75%
    20:00 +20°C° 0 mm 3 mps 750 mmHg 81%
    21:00 +19°C° 0 mm 2 mps 750 mmHg 84%
    22:00 +18°C° 0 mm 2 mps 750 mmHg 86%
    23:00 +17°C° 0 mm 2 mps 751 mmHg 88%

    25 July, Thursday

    Time Temperature Precipitation Wind Pressure Humidity
    00:00 +17°C° 0 mm 2 mps 751 mmHg 89%
    01:00 +16°C° 0 mm 2 mps 751 mmHg 90%
    02:00 +16°C° 0 mm 2 mps 751 mmHg 91%
    03:00 +16°C° 0 mm 2 mps 751 mmHg 91%
    04:00 +16°C° 0 mm 2 mps 751 mmHg 91%
    05:00 +15°C° 0 mm 2 mps 751 mmHg 91%
    06:00 +17°C° 0 mm 2 mps 751 mmHg 84%
    07:00 +19°C° 0 mm 3 mps 751 mmHg 78%
    08:00 +21°C° 0 mm 3 mps 751 mmHg 71%
    09:00 +22°C° 0 mm 3 mps 751 mmHg 65%
    10:00 +25°C° 0 mm 4 mps 751 mmHg 58%
    11:00 +26°C° 0 mm 4 mps 751 mmHg 52%
    12:00 +27°C° 0 mm 4 mps 751 mmHg 51%
    13:00 +27°C° 0 mm 4 mps 751 mmHg 50%
    14:00 +28°C° 0 mm 4 mps 751 mmHg 49%
    15:00 +27°C° 0 mm 4 mps 751 mmHg 52%
    16:00 +27°C° 0 mm 4 mps 751 mmHg 54%
    17:00 +27°C° 0 mm 4 mps 751 mmHg 57%
    18:00 +25°C° 0 mm 3 mps 751 mmHg 64%
    19:00 +22°C° 0 mm 3 mps 751 mmHg 71%
    20:00 +20°C° 0 mm 2 mps 751 mmHg 77%
    21:00 +20°C° 0 mm 2 mps 751 mmHg 79%
    22:00 +19°C° 0 mm 2 mps 751 mmHg 80%
    23:00 +18°C° 0 mm 2 mps 751 mmHg 82%

    26 July, Friday

    Time Temperature Precipitation Wind Pressure Humidity
    00:00 +18°C° 0 mm 2 mps 751 mmHg 84%
    01:00 +17°C° 0 mm 2 mps 751 mmHg 87%
    02:00 +17°C° 0 mm 2 mps 751 mmHg 89%
    03:00 +17°C° 0 mm 2 mps 751 mmHg 91%
    04:00 +17°C° 0 mm 2 mps 751 mmHg 92%
    05:00 +17°C° 0 mm 2 mps 751 mmHg 94%
    06:00 +18°C° 0 mm 2 mps 751 mmHg 88%
    07:00 +20°C° 0 mm 2 mps 751 mmHg 82%
    08:00 +23°C° 0 mm 2 mps 751 mmHg 77%
    09:00 +24°C° 0.1 mm 2 mps 751 mmHg 72%
    10:00 +26°C° 0.1 mm 2 mps 751 mmHg 68%
    11:00 +27°C° 0.1 mm 3 mps 751 mmHg 64%
    12:00 +27°C° 0.5 mm 3 mps 751 mmHg 65%
    13:00 +27°C° 0.5 mm 3 mps 750 mmHg 66%
    14:00 +27°C° 0.5 mm 3 mps 750 mmHg 68%
    15:00 +27°C° 0.4 mm 3 mps 750 mmHg 67%
    16:00 +27°C° 0.4 mm 3 mps 750 mmHg 67%
    17:00 +27°C° 0.4 mm 4 mps 749 mmHg 67%
    18:00 +25°C° 0 mm 3 mps 750 mmHg 70%
    19:00 +22°C° 0 mm 3 mps 750 mmHg 73%
    20:00 +20°C° 0 mm 3 mps 750 mmHg 76%
    21:00 +19°C° 0 mm 3 mps 750 mmHg 79%
    22:00 +18°C° 0 mm 3 mps 750 mmHg 81%
    23:00 +17°C° 0 mm 2 mps 750 mmHg 83%
    Show more